Regional Weather Roundup
Issued by NWS Lake Charles, LA

Home | Current Version | Previous Version | Text Only | Print | Product List | Glossary On
Versions: 1 2 3 4 5 6 7 8 9 10 11 12 13 14 15 16 17 18 19 20 21 22 23 24 25 26 27
000
ASUS44 KLCH 251410
RWRLCH
REGIONAL WEATHER ROUNDUP
NATIONAL WEATHER SERVICE LAKE CHARLES LA
900 AM CDT MON JUL 25 2016

Note: "fair" indicates few or no clouds below 12,000 feet with no
significant weather and/or obstructions to visibility.


ACROSS SOUTHEAST TEXAS

CITY           SKY/WX    TMP DP  RH WIND       PRES   REMARKS
BEAUMONT       PTSUNNY   86  79  79 N3        29.97S
BEAUMONT CITY  FAIR      85  78  77 N5        29.98S
ORANGE         MOSUNNY   82  77  83 N3        30.00R
JASPER         CLOUDY    77  74  90 E3        30.01S
$$

ACROSS CENTRAL LOUISIANA

CITY           SKY/WX    TMP DP  RH WIND       PRES   REMARKS
LEESVILLE      CLOUDY    78  75  90 NE5       30.00R
FULLERTON      FAIR      78  74  87 CALM      29.98S
ALEXANDRIA INT CLOUDY    79  75  87 CALM      29.98S
ESLER FIELD    CLOUDY    78  77  96 E3        30.00S FOG
DERIDDER       NOT AVBL
OAKDALE        CLOUDY    80  78  96 CALM      30.00R
OPELOUSAS      FAIR      80  76  85 CALM      30.00R
$$

ACROSS SOUTHWEST AND SOUTH CENTRAL LOUISIANA

CITY           SKY/WX    TMP DP  RH WIND       PRES   REMARKS
SULPHUR        PTSUNNY   84  78  83 NE5       29.99S
LAKE CHARLES   PTSUNNY   82  76  81 NE6       29.98S
CHENNAULT INT  PTSUNNY   81  75  83 NE8       29.99R THUNDER
CAMERON PHI    MOSUNNY   81  79  94 N6        29.97R
DEQUINCY       FAIR      82  76  81 CALM      29.99S
JENNINGS       FAIR      82  79  89 E7        29.99R
LAFAYETTE      MOSUNNY   84  77  79 NE7       29.99S
NEW IBERIA     CLOUDY    84  75  74 NE9       29.99S
ABBEVILLE      FAIR      83  79  88 NE6       29.98F
PATTERSON      LGT RAIN  82  78  88 NW5       29.98F
SALT POINT       N/A     82  76  81 VRB3      29.96F
$$

SELECTED SITES ACROSS THE REGION

CITY           SKY/WX    TMP DP  RH WIND       PRES   REMARKS
HOUSTON BUSH   MOSUNNY   86  76  71 CALM      29.97S
HOUSTON HOBBY  MOSUNNY   86  77  74 W5        29.97S
GALVESTON      MOSUNNY   87  79  76 NW7       29.97S HX 101
COLLEGE STAT   CLOUDY    81  77  88 CALM      29.99S
CONROE         CLOUDY    83  76  79 CALM      29.99R
HUNTSVILLE     CLOUDY    80  76  87 CALM      29.99S
LUFKIN         CLOUDY    79  76  90 NW3       29.99S
SHREVEPORT     CLOUDY    79  75  87 CALM      30.00R
MONROE         CLOUDY    78  75  90 E6        30.02R
NATCHEZ MS     SUNNY     79  73  83 E3        30.02S
BATON ROUGE    MOSUNNY   82  75  79 E6        30.00S
N.O. INTL ARPT PTSUNNY   85  77  77 N6        29.99S THUNDER
SLIDELL        CLOUDY    83  78  85 N8        29.99S
$$

MARINE REPORTS

STATION/POSITION TIME  SKY/WX   TEMP    WIND        PRES    VSBY
                                AIR SEA DIR/SP/G
                 (UTC)          (F)     (DEG/KT/KT) (MB)    (MI)
BUOY 30 S HIGH I 1350            86 88  270/  6/  8 1014.4S
WVE H/P(F/S)=  1/ 5

SEA RIM ST PARK  1400            81      10/  2/  3 1015.3F
PORT ARTHUR      1300               89   20/  2/  4 1015.0R
SABINE PASS N    1300            82 90  270/  2/  3 1016.3R
TEXAS POINT      NOT AVBL
CALCASIEU PASS   1300            81 89   50/  4/  4 1014.0R
LK CHARLES BEACH 1300            79 89              1015.5R
MARSH ISLAND     1300            83                   N/A
FRESH WATER LOCK 1300            81 89   50/  3/  4 1015.5R
AMERADA PASS     1300            80 85  280/  6/  9 1015.2R
$$




USA.gov is the U.S. government's official web portal to all federal, state and local government web resources and services.